Location: Iesi
(43.5167°N, 13.2333°E)
Time: 02:51:25
(UTC+00:00)

Nimbus 7 Rocket - Pass Details

Date: 08 August 2020
Orbit: 923 x 965 km, 99.4° (Epoch: 25 September)

Event Time Altitude Azimuth Distance (km) Brightness Sun altitude
Rises 22:24:24 0° 15° (NNE) 3,578 8.3 -29.7°
Reaches altitude 10° 22:26:50 10° 16° (NNE) 2,632 7.5 -29.8°
Enters shadow 22:32:16 76° 46° (NE) 960 4.4 -30.0°
